Snowfall_Accumulation
nan nan nan nan nan nan nan nan nan nan nan nan nan nan nan nan nan 0.0 0.0 0.0 0.0 nan nan 0.0 0.0 0.0 0.0 0.0 0.0 0.0 0.0 0.0 0.0 0.0 0.0 0.0 0.0 0.0 0.0 0.0 0.0 0.0 0.0 0.0 0.0
nan nan nan nan nan nan nan nan nan nan nan nan nan nan nan nan 0.0 0.0 nan nan nan nan 0.0 0.0 0.0 0.0 0.0 0.0 0.0 0.0 0.0 0.0 0.0 0.0 0.0 0.0 0.0 0.0 0.0 0.0 0.0 0.0 0.0 0.0 0.0
nan nan nan nan nan nan nan nan nan nan nan nan nan nan nan 0.0 0.0 0.0 nan nan nan 0.0 0.0 0.0 0.0 0.0 0.0 0.0 0.0 0.0 0.0 0.0 0.0 0.0 0.0 0.0 0.0 0.0 0.0 0.0 0.0 0.0 0.0 0.0 0.0
nan nan nan nan nan nan nan nan nan nan nan nan nan nan nan 0.0 0.0 0.0 nan nan nan 0.0 0.0 0.0 0.0 0.0 0.0 0.0 0.0 0.0 0.0 0.0 0.0 0.0 0.0 0.0 0.0 0.0 0.0 0.0 0.0 0.0 0.0 0.0 0.0
nan nan nan nan nan nan nan nan nan nan nan nan nan nan 0.0 0.0 0.0 0.0 nan nan 0.0 0.0 0.0 0.0 0.0 0.0 0.0 0.0 0.0 0.0 0.0 0.0 0.0 0.0 0.0 0.0 0.0 0.0 0.0 0.0 0.0 0.0 0.0 0.0 0.0
nan nan nan nan nan nan nan nan nan nan nan nan nan nan 0.0 0.0 0.0 0.0 0.0 0.0 0.0 0.0 0.0 0.0 0.0 0.0 0.0 0.0 0.0 0.0 0.0 0.0 0.0 0.0 0.0 0.0 0.0 0.0 0.0 0.0 0.0 0.0 0.0 0.0 0.0
nan nan nan nan nan nan nan nan nan nan nan nan nan 0.0 0.0 0.0 0.0 0.0 0.0 0.0 0.0 0.0 0.0 0.0 0.0 0.0 0.0 0.0 0.0 0.0 0.0 0.0 0.0 0.0 0.0 0.0 0.1 0.0 0.0 0.0 0.0 0.0 0.0 0.0 0.0
nan nan nan nan nan nan nan nan nan nan nan nan nan 0.0 0.0 0.0 0.0 0.0 0.0 0.0 0.0 0.0 0.0 0.0 0.0 0.0 0.0 0.0 0.0 0.0 0.0 0.2 0.0 0.0 0.0 0.0 0.6 0.0 0.0 0.0 0.0 0.0 0.0 0.0 0.0
nan nan nan nan nan nan nan nan nan nan nan nan 0.0 0.0 0.0 nan 0.0 0.0 0.0 0.0 0.0 0.0 0.0 0.0 0.0 0.0 0.0 0.0 0.2 0.0 0.6 0.0 0.0 0.0 0.0 0.0 0.1 0.0 0.0 0.0 0.0 0.0 0.0 0.0 0.0
nan nan nan nan nan nan nan nan nan nan 0.0 0.0 0.0 0.0 0.0 0.0 0.0 0.0 0.0 0.0 0.0 0.0 0.0 0.0 0.0 0.0 0.0 0.1 2.3 0.1 0.5 0.1 0.0 0.0 0.0 0.1 0.1 0.0 0.0 0.0 0.0 0.0 0.0 0.0 0.0
nan nan nan nan nan nan 0.0 0.0 0.0 0.0 0.0 0.0 0.0 0.0 0.0 0.0 0.0 0.0 0.0 0.0 0.0 0.0 0.0 0.0 0.1 0.5 0.0 0.0 0.0 0.2 0.6 0.6 0.0 0.0 0.0 0.0 0.0 0.0 0.0 0.0 0.0 0.0 0.0 0.0 0.0
nan nan nan nan nan nan 0.0 0.0 0.0 0.0 0.0 0.0 0.0 0.0 0.0 0.0 0.0 0.0 0.0 0.0 0.0 0.0 0.0 0.0 0.3 0.0 0.0 0.0 0.1 0.1 0.8 1.2 0.0 0.0 0.0 0.1 0.1 0.0 0.0 0.0 0.0 0.0 0.0 0.0 0.0
nan nan nan nan nan 0.0 0.0 0.0 0.0 0.0 0.0 0.0 0.0 0.0 0.0 0.0 0.0 0.0 0.0 0.0 0.0 0.0 0.1 0.3 0.0 0.0 0.0 0.0 0.1 0.1 1.1 0.7 0.8 0.0 0.0 0.2 0.7 0.0 0.0 0.0 0.0 0.0 0.0 0.0 0.0
nan nan nan nan nan 0.0 0.0 0.0 0.0 0.0 0.1 0.0 0.0 0.0 0.0 0.0 0.0 0.0 0.0 0.0 0.0 0.2 0.0 0.1 0.0 0.0 0.0 0.0 0.0 1.9 0.0 0.0 0.2 3.7 7.8 0.2 12.5 0.0 0.0 0.0 0.0 0.0 0.0 0.0 0.0
nan nan nan nan 0.0 0.0 0.0 0.0 0.0 0.0 3.3 0.0 0.0 0.0 0.0 0.0 0.0 0.0 0.0 0.0 0.1 0.1 0.5 0.3 0.0 0.0 0.0 0.0 0.0 0.5 0.0 0.0 0.1 2.2 3.3 1.0 10.0 0.3 0.0 0.0 0.0 0.0 0.0 0.0 0.0
nan nan nan 0.0 0.0 0.0 0.0 0.0 0.0 1.2 6.9 0.0 0.0 0.0 0.0 0.0 0.0 0.0 0.0 0.0 0.0 0.1 0.0 0.2 0.0 0.0 0.1 0.1 0.0 0.0 0.2 0.0 0.2 1.2 17.2 1.2 2.3 2.8 0.4 0.4 0.0 0.0 0.0 0.0 0.0
nan nan nan 0.0 0.0 0.0 0.0 0.0 0.6 1.6 0.0 0.0 0.1 0.0 0.0 0.0 0.0 0.0 0.0 1.6 2.5 4.2 1.2 0.1 0.1 0.2 0.1 0.4 0.0 1.1 3.5 13.4 11.7 19.6 8.9 0.3 1.4 3.7 0.3 0.0 0.0 0.0 0.0 0.0 0.0
nan nan nan 0.0 0.0 0.0 0.0 0.0 0.3 0.0 0.0 0.0 0.0 0.0 0.0 0.0 0.0 0.0 0.0 0.6 0.2 0.8 3.1 2.0 1.7 0.2 0.0 2.5 8.4 1.0 9.2 13.3 9.7 2.8 0.7 0.1 5.5 3.3 0.1 0.0 0.0 0.0 0.0 0.0 0.0
nan 0.0 0.0 0.0 0.0 0.0 0.0 1.1 0.6 0.2 0.1 0.0 0.0 0.0 0.0 0.0 0.2 0.1 0.2 1.8 1.1 1.9 12.0 5.0 0.4 0.1 0.1 0.1 0.8 1.2 7.1 0.2 9.4 0.9 6.3 1.0 0.9 0.9 0.0 0.0 0.0 0.0 0.0 0.0 0.0
0.0 0.0 0.0 0.0 0.0 0.0 0.3 nan 0.2 0.1 0.0 0.0 0.4 0.1 0.6 0.1 0.2 0.3 0.3 3.1 2.2 1.1 0.6 1.6 6.3 0.0 0.1 0.3 0.3 3.1 1.3 7.0 10.5 13.5 4.3 0.3 4.3 4.1 0.5 0.3 0.0 0.0 0.2 0.1 0.1
0.0 0.0 0.0 0.0 0.0 0.0 1.8 0.5 0.2 0.0 0.0 0.2 0.1 0.9 1.6 1.4 0.2 0.4 1.2 1.2 0.7 0.1 0.1 3.0 5.8 0.5 0.1 1.5 8.3 3.1 13.5 5.2 5.9 7.3 12.3 4.7 5.5 6.5 4.8 4.1 4.4 1.4 0.9 1.3 1.1
0.0 0.1 0.0 0.0 0.0 0.0 0.5 0.1 nan 0.1 0.0 0.0 0.1 1.2 0.7 0.4 0.7 0.3 0.3 0.4 0.2 0.3 4.0 1.4 6.2 7.0 1.0 1.9 2.8 2.7 9.5 9.3 8.5 7.6 6.4 9.5 9.3 1.9 6.3 6.7 8.4 5.7 4.1 2.0 2.4
0.3 0.0 0.0 0.0 0.8 0.3 0.1 0.0 0.0 0.0 0.0 0.0 0.1 0.1 0.2 0.4 2.4 0.1 0.0 0.0 0.0 0.1 3.2 7.4 4.8 3.4 4.4 3.1 1.2 6.4 6.3 7.8 4.0 5.7 9.0 21.7 16.5 2.1 4.4 5.8 6.9 7.5 5.5 5.6 2.8
0.3 1.0 0.0 0.0 0.0 2.7 1.2 0.1 0.0 0.0 0.0 0.0 0.1 0.0 0.0 0.0 0.0 0.7 0.0 0.0 0.0 0.0 nan nan 2.2 5.3 9.9 7.8 4.8 9.9 5.0 5.1 8.5 15.8 10.4 16.8 19.6 9.8 8.3 6.7 4.9 5.1 6.3 5.8 5.6
0.2 1.3 0.2 0.9 0.2 0.2 0.3 0.7 0.1 0.1 0.0 0.0 0.1 0.0 2.7 2.8 0.0 0.1 0.0 0.0 0.0 nan 0.0 1.2 2.9 0.3 0.6 1.2 3.9 6.9 10.5 6.8 13.3 10.9 15.7 19.2 16.9 17.2 16.0 21.1 16.1 15.2 10.7 7.0 6.9
1.3 3.1 1.4 0.5 0.1 0.1 0.2 0.8 0.2 0.2 1.7 0.3 0.1 0.1 0.0 2.3 0.3 1.5 0.0 0.0 0.0 0.0 0.0 0.2 2.4 1.8 2.2 1.5 3.9 7.7 4.4 4.0 4.2 7.4 8.2 8.5 8.9 8.9 11.8 8.1 10.5 9.4 9.7 8.5 8.9
0.0 0.1 2.8 nan 0.2 1.4 0.4 0.4 1.1 0.2 0.0 0.0 0.0 0.4 0.1 0.0 0.0 0.0 0.0 0.0 0.0 0.2 0.1 1.0 1.5 2.8 0.9 0.6 1.3 7.4 14.9 7.5 8.1 12.1 14.1 22.7 24.1 13.3 11.6 12.1 14.7 12.4 14.3 14.5 12.4
Water_Equivalent
nan nan nan nan nan nan nan nan nan nan nan nan nan nan nan nan nan 0.00 0.00 0.00 0.00 nan nan 0.00 0.00 0.00 0.00 0.00 0.00 0.00 0.00 0.00 0.00 0.00 0.00 0.00 0.00 0.00 0.00 0.00 0.00 0.00 0.00 0.00 0.00
nan nan nan nan nan nan nan nan nan nan nan nan nan nan nan nan 0.00 0.00 nan nan nan nan 0.00 0.00 0.00 0.00 0.00 0.00 0.00 0.00 0.00 0.00 0.00 0.00 0.00 0.00 0.00 0.00 0.00 0.00 0.00 0.00 0.00 0.00 0.00
nan nan nan nan nan nan nan nan nan nan nan nan nan nan nan 0.00 0.00 0.00 nan nan nan 0.00 0.00 0.00 0.00 0.00 0.00 0.00 0.00 0.00 0.00 0.00 0.00 0.00 0.00 0.00 0.00 0.00 0.00 0.00 0.00 0.00 0.00 0.00 0.00
nan nan nan nan nan nan nan nan nan nan nan nan nan nan nan 0.00 0.00 0.00 nan nan nan 0.00 0.00 0.00 0.00 0.00 0.00 0.00 0.00 0.00 0.00 0.00 0.00 0.00 0.00 0.00 0.00 0.00 0.00 0.00 0.00 0.00 0.00 0.00 0.00
nan nan nan nan nan nan nan nan nan nan nan nan nan nan 0.00 0.00 0.00 0.00 nan nan 0.00 0.00 0.00 0.00 0.00 0.00 0.00 0.00 0.00 0.00 0.00 0.00 0.00 0.00 0.00 0.00 0.00 0.00 0.00 0.00 0.00 0.00 0.00 0.00 0.00
nan nan nan nan nan nan nan nan nan nan nan nan nan nan 0.00 0.00 0.00 0.00 0.00 0.00 0.00 0.00 0.00 0.00 0.00 0.00 0.00 0.00 0.00 0.00 0.00 0.00 0.00 0.00 0.00 0.00 0.00 0.00 0.00 0.00 0.00 0.00 0.00 0.00 0.00
nan nan nan nan nan nan nan nan nan nan nan nan nan 0.00 0.00 0.00 0.00 0.00 0.00 0.00 0.00 0.00 0.00 0.00 0.00 0.00 0.00 0.00 0.00 0.00 0.00 0.00 0.00 0.00 0.00 0.00 0.01 0.00 0.00 0.00 0.00 0.00 0.00 0.00 0.00
nan nan nan nan nan nan nan nan nan nan nan nan nan 0.00 0.00 0.00 0.00 0.00 0.00 0.00 0.00 0.00 0.00 0.00 0.00 0.00 0.00 0.00 0.00 0.00 0.00 0.03 0.00 0.00 0.00 0.00 0.10 0.00 0.00 0.00 0.00 0.00 0.00 0.00 0.00
nan nan nan nan nan nan nan nan nan nan nan nan 0.00 0.00 0.00 nan 0.00 0.00 0.00 0.00 0.00 0.00 0.00 0.00 0.00 0.00 0.00 0.00 0.05 0.00 0.09 0.00 0.00 0.00 0.00 0.00 0.01 0.00 0.00 0.00 0.00 0.00 0.00 0.00 0.00
nan nan nan nan nan nan nan nan nan nan 0.00 0.00 0.00 0.00 0.00 0.00 0.00 0.00 0.00 0.00 0.00 0.00 0.00 0.00 0.00 0.00 0.00 0.01 0.37 0.02 0.07 0.01 0.01 0.00 0.00 0.01 0.02 0.00 0.00 0.00 0.00 0.00 0.00 0.00 0.00
nan nan nan nan nan nan 0.00 0.00 0.00 0.00 0.00 0.00 0.00 0.00 0.00 0.00 0.00 0.00 0.00 0.00 0.00 0.00 0.00 0.00 0.03 0.08 0.00 0.00 0.00 0.04 0.09 0.09 0.00 0.00 0.00 0.01 0.00 0.00 0.00 0.00 0.00 0.00 0.00 0.00 0.00
nan nan nan nan nan nan 0.00 0.00 0.00 0.00 0.00 0.00 0.00 0.00 0.00 0.00 0.00 0.00 0.00 0.00 0.00 0.00 0.00 0.00 0.06 0.00 0.00 0.00 0.01 0.02 0.14 0.22 0.01 0.00 0.00 0.01 0.02 0.00 0.00 0.00 0.00 0.00 0.00 0.00 0.00
nan nan nan nan nan 0.00 0.00 0.00 0.00 0.00 0.00 0.00 0.00 0.00 0.00 0.00 0.00 0.00 0.00 0.00 0.00 0.00 0.02 0.04 0.00 0.00 0.00 0.00 0.02 0.03 0.20 0.12 0.16 0.00 0.00 0.04 0.11 0.00 0.00 0.00 0.00 0.00 0.00 0.00 0.00
nan nan nan nan nan 0.00 0.00 0.00 0.00 0.00 0.05 0.00 0.00 0.00 0.00 0.00 0.00 0.00 0.00 0.00 0.01 0.04 0.00 0.02 0.00 0.00 0.00 0.00 0.00 0.23 0.00 0.01 0.03 0.52 1.00 0.05 1.20 0.00 0.00 0.00 0.00 0.00 0.00 0.00 0.00
nan nan nan nan 0.00 0.00 0.00 0.00 0.00 0.00 0.92 0.00 0.00 0.00 0.00 0.00 0.00 0.00 0.00 0.00 0.03 0.02 0.09 0.06 0.00 0.00 0.00 0.00 0.00 0.06 0.00 0.00 0.02 0.38 0.42 0.18 1.30 0.05 0.00 0.00 0.00 0.00 0.00 0.00 0.00
nan nan nan 0.00 0.00 0.00 0.00 0.00 0.00 0.28 1.75 0.00 0.00 0.00 0.00 0.00 0.00 0.00 0.00 0.00 0.00 0.02 0.00 0.05 0.00 0.01 0.01 0.01 0.00 0.00 0.02 0.00 0.05 0.20 2.06 0.31 0.28 0.27 0.05 0.05 0.00 0.00 0.00 0.00 0.00
nan nan nan 0.00 0.00 0.00 0.00 0.00 0.19 0.36 0.00 0.00 0.02 0.00 0.00 0.00 0.00 0.00 0.00 0.25 0.37 0.44 0.18 0.03 0.02 0.05 0.02 0.07 0.00 0.15 0.40 1.59 1.45 2.35 0.97 0.07 0.23 0.40 0.03 0.00 0.00 0.00 0.00 0.00 0.00
nan nan nan 0.00 0.00 0.00 0.00 0.00 0.06 0.00 0.00 0.00 0.00 0.00 0.00 0.00 0.00 0.00 0.01 0.10 0.04 0.13 0.36 0.27 0.32 0.05 0.01 0.38 0.99 0.13 0.88 1.26 0.85 0.35 0.10 0.01 0.50 0.35 0.01 0.00 0.00 0.00 0.00 0.00 0.00
nan 0.00 0.00 0.00 0.00 0.00 0.00 0.29 0.11 0.04 0.02 0.01 0.00 0.00 0.00 0.00 0.03 0.01 0.03 0.27 0.19 0.25 0.94 0.42 0.05 0.01 0.02 0.01 0.13 0.15 0.83 0.03 0.76 0.12 0.49 0.10 0.10 0.13 0.00 0.00 0.00 0.00 0.00 0.00 0.00
0.00 0.00 0.00 0.00 0.00 0.00 0.07 nan 0.03 0.01 0.00 0.00 0.06 0.01 0.07 0.02 0.04 0.05 0.05 0.51 0.31 0.17 0.11 0.21 0.49 0.00 0.02 0.05 0.06 0.37 0.19 0.77 1.48 1.30 0.35 0.03 0.33 0.28 0.04 0.03 0.00 0.00 0.02 0.02 0.01
0.00 0.00 0.00 0.00 0.00 0.00 0.45 0.10 0.04 0.00 0.01 0.03 0.02 0.14 0.21 0.17 0.03 0.08 0.19 0.17 0.13 0.02 0.02 0.42 0.59 0.07 0.03 0.19 0.76 0.37 2.01 0.59 0.62 0.53 0.99 0.38 0.41 0.61 0.41 0.37 0.37 0.13 0.09 0.14 0.12
0.00 0.03 0.00 0.00 0.01 0.00 0.13 0.02 nan 0.02 0.00 0.00 0.02 0.21 0.10 0.06 0.11 0.05 0.05 0.08 0.03 0.07 0.47 0.26 0.65 0.79 0.13 0.27 0.42 0.35 0.95 1.02 0.67 0.64 0.49 0.78 0.88 0.23 0.63 0.65 0.83 0.54 0.42 0.21 0.30
0.07 0.00 0.00 0.00 0.19 0.08 0.03 0.00 0.00 0.00 0.00 0.00 0.02 0.02 0.04 0.06 0.24 0.02 0.00 0.00 0.00 0.03 0.42 0.84 0.65 0.41 0.45 0.45 0.17 0.61 0.67 0.81 0.37 0.53 0.64 1.74 1.49 0.28 0.43 0.58 0.93 0.79 0.53 0.61 0.31
0.09 0.24 0.00 0.00 0.00 0.55 0.19 0.01 0.00 0.00 0.00 0.00 0.02 0.01 0.01 0.00 0.00 0.09 0.00 0.00 0.00 0.00 nan nan 0.29 0.51 0.76 0.61 0.49 0.78 0.43 0.49 0.77 1.94 0.79 1.60 1.52 0.96 0.80 0.61 0.65 0.53 0.67 0.69 0.70
0.05 0.24 0.05 0.23 0.04 0.04 0.07 0.13 0.03 0.01 0.00 0.00 0.01 0.01 0.34 0.25 0.00 0.01 0.00 0.00 0.00 nan 0.00 0.19 0.53 0.03 0.06 0.11 0.37 0.58 0.87 0.56 1.51 0.84 1.31 1.79 1.23 1.51 1.46 1.97 1.73 1.60 1.14 0.69 0.70
0.33 0.66 0.31 0.12 0.02 0.03 0.04 0.13 0.04 0.03 0.27 0.05 0.02 0.02 0.00 0.23 0.04 0.15 0.00 0.00 0.00 0.00 0.01 0.05 0.45 0.41 0.46 0.17 0.38 0.62 0.43 0.38 0.37 0.58 0.67 0.76 0.66 0.93 1.39 1.12 1.23 1.04 1.00 0.83 1.02
0.00 0.02 0.67 nan 0.03 0.24 0.10 0.07 0.17 0.03 0.00 0.00 0.01 0.07 0.02 0.00 0.00 0.00 0.00 0.00 0.00 0.03 0.01 0.13 0.25 0.55 0.10 0.06 0.12 0.90 1.20 0.68 0.71 0.97 1.10 1.42 1.75 1.36 1.15 1.19 1.55 1.23 1.38 1.50 1.66
SL_Ratio
nan nan nan nan nan nan nan nan nan nan nan nan nan nan nan nan nan nan nan nan nan nan nan nan nan nan nan nan nan nan nan nan nan nan nan nan nan nan nan nan nan nan nan nan nan
nan nan nan nan nan nan nan nan nan nan nan nan nan nan nan nan nan nan nan nan nan nan nan nan nan nan nan nan nan nan nan nan nan nan nan nan nan nan nan nan nan nan nan nan nan
nan nan nan nan nan nan nan nan nan nan nan nan nan nan nan nan nan nan nan nan nan nan nan nan nan nan nan nan nan nan nan nan nan nan nan nan nan nan nan nan nan nan nan nan nan
nan nan nan nan nan nan nan nan nan nan nan nan nan nan nan nan nan nan nan nan nan nan nan nan nan nan nan nan nan nan nan nan nan nan nan nan nan nan nan nan nan nan nan nan nan
nan nan nan nan nan nan nan nan nan nan nan nan nan nan nan nan nan nan nan nan nan nan nan nan nan nan nan nan nan nan nan nan nan nan nan nan nan nan nan nan nan nan nan nan nan
nan nan nan nan nan nan nan nan nan nan nan nan nan nan nan nan nan nan nan nan nan nan nan nan nan nan nan nan nan nan nan nan nan nan nan 0.0 nan nan nan nan nan nan nan nan nan
nan nan nan nan nan nan nan nan nan nan nan nan nan nan nan nan nan nan nan nan nan nan nan nan nan nan nan nan nan nan nan nan nan nan nan nan 4.8 nan nan nan nan nan nan nan nan
nan nan nan nan nan nan nan nan nan nan nan nan nan nan nan nan nan nan nan nan nan nan nan nan nan nan nan nan nan nan 4.2 5.1 nan nan nan 5.0 6.4 nan nan nan nan nan nan nan nan
nan nan nan nan nan nan nan nan nan nan nan nan nan nan nan nan nan nan nan nan nan nan nan nan nan nan nan 5.0 5.3 4.4 6.9 6.4 nan nan nan 4.3 5.3 nan nan nan nan nan nan nan nan
nan nan nan nan nan nan nan nan nan nan nan nan nan nan nan nan nan nan nan nan nan nan nan nan nan nan nan 4.1 6.3 4.8 6.8 6.0 5.7 nan nan 5.0 5.1 nan nan nan nan nan nan nan nan
nan nan nan nan nan nan nan nan nan nan nan nan nan nan nan nan nan nan nan nan nan nan nan nan 5.0 5.7 nan nan nan 5.8 6.8 7.1 nan nan 5.0 4.8 5.5 nan nan nan nan nan nan nan nan
nan nan nan nan nan nan nan nan nan nan nan nan nan nan nan nan nan nan nan nan nan nan nan 0.0 5.4 nan nan 0.0 5.2 5.3 5.5 5.6 4.1 nan 6.7 4.8 5.2 nan nan nan nan nan nan nan nan
nan nan nan nan nan nan nan nan nan nan nan nan nan nan nan nan nan nan nan nan 0.0 nan 5.1 6.2 5.0 nan nan 5.0 5.2 5.1 5.6 6.1 5.2 2.5 2.7 5.3 6.3 nan nan nan nan nan nan nan nan
nan nan nan nan nan nan nan nan nan nan 2.7 nan nan nan nan nan nan nan nan 2.5 4.0 5.6 5.0 5.0 nan nan nan 5.0 5.0 8.2 nan 5.6 6.3 7.1 7.9 4.5 10.4 nan nan 0.0 nan nan nan nan nan
nan nan nan nan nan nan nan nan nan nan 3.6 nan nan nan nan 5.0 nan nan nan nan 3.7 4.1 5.5 5.5 nan nan 0.0 nan nan 8.3 nan nan 4.2 5.9 7.8 5.4 7.7 5.8 nan nan nan nan nan nan nan
nan nan nan nan nan nan nan nan nan 4.3 3.9 nan nan nan nan nan nan nan nan nan nan 3.5 5.0 4.8 nan 4.3 5.1 5.3 nan nan 7.2 5.7 4.3 5.9 8.3 4.0 8.3 10.3 7.7 8.8 nan nan nan nan nan
nan nan nan nan nan nan nan nan 3.1 4.4 nan nan 2.9 nan nan nan nan nan nan 6.4 6.9 9.7 6.9 4.7 4.4 4.6 4.6 5.3 3.3 7.4 9.0 8.4 8.1 8.3 9.2 4.0 6.1 9.2 8.6 7.8 nan nan nan nan nan
nan nan nan nan nan nan nan nan 5.5 10.0 5.0 nan nan nan nan nan nan 10.0 4.8 6.3 4.6 6.4 8.7 7.5 5.2 5.2 4.4 6.7 8.5 7.7 10.4 10.6 11.4 7.9 6.7 5.7 11.0 9.5 7.1 nan nan nan nan nan nan
nan nan nan nan nan nan nan 4.0 5.6 5.9 5.4 5.3 nan nan 0.0 nan 5.1 4.6 5.1 6.5 6.0 7.5 12.8 12.0 7.0 4.3 4.1 4.6 6.2 7.8 8.5 6.3 12.4 7.6 12.8 9.7 8.8 7.3 nan nan nan nan nan nan nan
nan nan nan nan nan nan 4.3 nan 4.4 4.4 nan nan 6.5 5.8 8.1 5.5 5.6 6.1 5.5 6.1 7.1 6.2 5.4 7.6 13.0 6.7 4.6 5.2 5.5 8.4 6.7 9.2 7.1 10.4 12.5 9.9 13.2 14.5 10.9 9.7 10.0 8.5 8.5 8.2 7.9
nan nan nan nan nan nan 4.0 5.1 4.6 3.3 3.9 5.8 5.8 6.6 7.9 8.2 6.2 5.5 6.2 6.9 5.4 5.1 4.6 7.0 9.8 6.4 5.7 8.1 10.9 8.5 6.7 8.8 9.5 13.7 12.4 12.2 13.4 10.7 11.9 11.2 11.9 10.7 9.8 9.8 9.6
nan 3.3 nan nan 2.4 0.0 4.2 4.6 nan 3.9 nan nan 4.5 5.8 6.6 6.5 6.3 5.7 6.0 5.7 5.1 4.7 8.5 5.6 9.5 8.9 8.3 6.8 6.7 7.7 10.0 9.1 12.7 12.0 13.0 12.3 10.5 8.0 10.1 10.2 10.2 10.4 9.8 9.5 8.0
3.6 nan nan nan 4.3 4.0 4.6 nan nan 5.0 nan 4.0 5.1 4.8 5.0 6.5 9.8 5.6 5.0 nan nan 4.6 7.6 8.8 7.4 8.4 9.9 6.8 7.3 10.4 9.4 9.7 10.9 10.7 14.2 12.4 11.0 7.4 10.1 9.9 7.5 9.6 10.2 9.2 8.9
3.5 4.3 nan nan 3.8 4.8 6.3 4.7 6.0 nan nan nan 5.3 5.3 6.5 nan nan 7.4 10.0 nan nan nan nan nan 7.6 10.3 13.0 12.8 9.8 12.7 11.7 10.5 11.1 8.2 13.2 10.5 12.9 10.3 10.3 11.0 7.4 9.5 9.4 8.5 7.9
3.4 5.3 4.4 4.1 3.6 4.0 4.8 5.1 5.2 5.8 5.0 3.3 5.1 5.8 8.1 11.1 nan 7.1 nan nan nan nan 3.3 6.4 5.5 9.0 10.0 10.7 10.7 11.8 12.1 12.0 8.8 13.1 11.9 10.7 13.8 11.4 11.0 10.7 9.3 9.5 9.4 10.2 9.8
4.1 4.7 4.7 4.0 4.8 4.9 3.8 5.8 4.8 5.2 6.4 5.6 6.3 5.0 6.7 10.1 6.7 10.3 5.0 nan 10.0 nan 4.6 4.9 5.2 4.6 4.8 9.0 10.5 12.4 10.3 10.6 11.6 12.8 12.2 11.1 13.6 9.6 8.5 7.3 8.6 9.1 9.7 10.3 8.8
2.5 2.9 4.2 nan 5.0 6.0 4.3 5.5 6.1 5.4 3.3 nan 5.4 6.1 6.0 nan nan nan nan nan nan 6.8 6.1 7.9 6.1 5.1 9.8 10.3 10.2 8.2 12.4 11.1 11.4 12.4 12.8 16.0 13.8 9.8 10.1 10.2 9.5 10.0 10.4 9.6 7.5